Weather History for Dalaman, Turkey

Change the Weather History Date:

Tuesday, January 22, 2013

  Actual Average Record
Temperature  
Mean Temperature 58 °F -  
Max Temperature 67 °F 58 °F 67 °F (2013)
Min Temperature 49 °F 41 °F 35 °F (2000)
Degree Days  
Heating Degree Days 7    
Growing Degree Days 8 (Base 50)    
Moisture  
Dew Point 50 °F    
Average Humidity 74    
Maximum Humidity 100    
Minimum Humidity 43    
Precipitation  
Precipitation 0.59 in - - ()
Sea Level Pressure  
Sea Level Pressure 29.88 in    
Wind  
Wind Speed 9 mph ()    
Max Wind Speed 24 mph    
Max Gust Speed 39 mph    
Visibility 6.0 miles    
Events Rain , Thunderstorm    
Averages and records for this station are not official NWS values.
T = Trace of Precipitation, MM = Missing Value Source: Averaged Metar Reports

Daily Weather History Graph

Daily Weather History Graph

Search for Another Location

Airport:

Trip Planner

Search our weather history database for the weather conditions in past years. The results will help you decide how hot, cold, wet, or windy it might be!

Date:

Astronomy

Jan. 22, 2013 Rise Set
Actual Time 7:13 AM EET 5:19 PM EET
Civil Twilight 6:45 AM EET 5:47 PM EET
Nautical Twilight 6:14 AM EET 6:18 PM EET
Astronomical Twilight 5:43 AM EET 6:49 PM EET
Moon 1:28 PM EET 3:17 AM EET
Length of Visible Light 11h 01m
Length of Day
10h 06m
Waxing Gibbous, 80% of the Moon is Illuminated
Jan 22
Waxing Gibbous
Jan 27
Full
Feb 3
Last Quarter
Feb 10
New
Feb 17
First Quarter

Hourly Weather History & Observations

Time (EET) Temp. Dew Point Humidity Pressure Visibility Wind Dir Wind Speed Gust Speed Precip Events Conditions
12:20 AM 51.8 °F 48.2 °F 88% 29.86 in 6.2 mi NNE 5.8 mph - N/A   Mostly Cloudy
12:50 AM 53.6 °F 46.4 °F 77% 29.83 in 6.2 mi NE 6.9 mph - N/A   Mostly Cloudy
1:20 AM 53.6 °F 46.4 °F 77% 29.83 in 6.2 mi NE 3.5 mph - N/A   Mostly Cloudy
1:50 AM 50.0 °F 46.4 °F 87% 29.83 in 6.2 mi NE 6.9 mph - N/A   Mostly Cloudy
2:00 AM 50 °F 46 °F 81% 29.84 in 6 mi NE 6.9 mph - -   Scattered Clouds
2:20 AM 51.8 °F 46.4 °F 82% 29.83 in 6.2 mi NNE 6.9 mph - N/A   Mostly Cloudy
2:50 AM 51.8 °F 44.6 °F 76% 29.83 in 6.2 mi ENE 4.6 mph - N/A   Mostly Cloudy
3:20 AM 66.2 °F 42.8 °F 43% 29.83 in 6.2 mi SSE 21.9 mph 35.7 mph N/A   Mostly Cloudy
3:50 AM 66.2 °F 42.8 °F 43% 29.83 in 6.2 mi SSE 21.9 mph 39.1 mph N/A   Mostly Cloudy
4:20 AM 66.2 °F 44.6 °F 46% 29.83 in 6.2 mi SSE 20.7 mph 32.2 mph N/A   Mostly Cloudy
4:50 AM 66.2 °F 44.6 °F 46% 29.83 in 6.2 mi SSE 20.7 mph 32.2 mph N/A   Mostly Cloudy
5:20 AM 66.2 °F 44.6 °F 46% 29.83 in 6.2 mi SSE 24.2 mph - N/A   Mostly Cloudy
5:50 AM 64.4 °F 44.6 °F 49% 29.83 in 6.2 mi SSE 15.0 mph 28.8 mph N/A   Mostly Cloudy
6:20 AM 64.4 °F 46.4 °F 52% 29.83 in 6.2 mi SSE 18.4 mph 29.9 mph N/A   Mostly Cloudy
6:50 AM 64.4 °F 46.4 °F 52% 29.80 in 6.2 mi SSE 15.0 mph - N/A   Mostly Cloudy
7:20 AM 64.4 °F 46.4 °F 52% 29.80 in 6.2 mi SSE 18.4 mph 31.1 mph N/A   Scattered Clouds
7:50 AM 64.4 °F 46.4 °F 52% 29.80 in 6.2 mi SSE 13.8 mph 25.3 mph N/A   Scattered Clouds
8:00 AM 64 °F 47 °F 43% 29.82 in 6 mi SSE 13.8 mph - -   Scattered Clouds
8:20 AM 64.4 °F 46.4 °F 52% 29.80 in 6.2 mi SE 13.8 mph - N/A   Mostly Cloudy
8:50 AM 64.4 °F 48.2 °F 56% 29.80 in 6.2 mi SSE 16.1 mph - N/A   Scattered Clouds
9:20 AM 66.2 °F 48.2 °F 52% 29.80 in 6.2 mi SSE 16.1 mph 28.8 mph N/A   Scattered Clouds
9:50 AM 66.2 °F 48.2 °F 52% 29.80 in 6.2 mi SSE 20.7 mph - N/A   Scattered Clouds
10:20 AM 68.0 °F 50.0 °F 52% 29.83 in 6.2 mi South 17.3 mph - N/A   Scattered Clouds
10:50 AM 66.2 °F 51.8 °F 60% 29.86 in 5.0 mi SSE 17.3 mph - N/A Rain , Thunderstorm Light Thunderstorms and Rain
11:20 AM 55.4 °F 51.8 °F 88% 29.89 in 1.9 mi West 17.3 mph - N/A Rain , Thunderstorm Thunderstorms and Rain
11:50 AM 53.6 °F 51.8 °F 94% 29.92 in 1.9 mi SSW 9.2 mph - N/A Rain , Thunderstorm Thunderstorms and Rain
12:20 PM 53.6 °F 51.8 °F 94% 29.89 in 5.0 mi ENE 9.2 mph - N/A Rain , Thunderstorm Light Thunderstorms and Rain
12:50 PM 55.4 °F 53.6 °F 94% 29.89 in 6.2 mi North 5.8 mph - N/A   Mostly Cloudy
1:20 PM 57.2 °F 53.6 °F 88% 29.89 in 6.2 mi NNE 6.9 mph - N/A   Scattered Clouds
1:50 PM 60.8 °F 53.6 °F 77% 29.86 in 6.2 mi Variable 2.3 mph - N/A   Scattered Clouds
2:00 PM 60 °F 53 °F 72% 29.89 in 6 mi East 2.3 mph - -   Partly Cloudy
2:20 PM 59.0 °F 51.8 °F 77% 29.89 in 6.2 mi ESE 9.2 mph - N/A   Scattered Clouds
2:50 PM 59.0 °F 53.6 °F 82% 29.89 in 6.2 mi ESE 4.6 mph - N/A   Scattered Clouds
3:20 PM 62.6 °F 53.6 °F 72% 29.89 in 6.2 mi Variable 2.3 mph - N/A   Scattered Clouds
3:50 PM 60.8 °F 53.6 °F 77% 29.89 in 6.2 mi Variable 2.3 mph - N/A   Scattered Clouds
4:20 PM 60.8 °F 51.8 °F 72% 29.89 in 6.2 mi West 3.5 mph - N/A   Scattered Clouds
4:50 PM 60.8 °F 51.8 °F 72% 29.89 in 6.2 mi Variable 2.3 mph - N/A   Scattered Clouds
5:20 PM 59.0 °F 53.6 °F 82% 29.89 in 6.2 mi Variable 1.2 mph - N/A   Scattered Clouds
5:50 PM 55.4 °F 53.6 °F 94% 29.92 in 6.2 mi ESE 4.6 mph - N/A   Scattered Clouds
6:20 PM 53.6 °F 51.8 °F 94% 29.92 in 6.2 mi ESE 3.5 mph - N/A   Scattered Clouds
6:50 PM 53.6 °F 51.8 °F 94% 29.95 in 6.2 mi NNE 4.6 mph - N/A   Scattered Clouds
7:20 PM 53.6 °F 51.8 °F 94% 29.95 in 6.2 mi NNE 5.8 mph - N/A   Scattered Clouds
7:50 PM 53.6 °F 51.8 °F 94% 29.95 in 6.2 mi NE 3.5 mph - N/A   Scattered Clouds
8:00 PM 53 °F 51 °F 92% 29.96 in 6 mi NE 3.5 mph - -   Partly Cloudy
8:20 PM 51.8 °F 50.0 °F 94% 29.95 in 6.2 mi ENE 4.6 mph - N/A   Mostly Cloudy
8:50 PM 51.8 °F 51.8 °F 100% 29.95 in 6.2 mi North 5.8 mph - N/A   Mostly Cloudy
9:20 PM 53.6 °F 51.8 °F 94% 29.95 in 6.2 mi ENE 4.6 mph - N/A   Mostly Cloudy
9:50 PM 55.4 °F 51.8 °F 88% 29.95 in 6.2 mi NNW 10.4 mph - N/A Rain Light Rain Showers
10:20 PM 53.6 °F 51.8 °F 94% 29.95 in 6.2 mi East 5.8 mph - N/A Rain Light Rain Showers
10:50 PM 53.6 °F 51.8 °F 94% 29.95 in 6.2 mi NE 4.6 mph - N/A Rain Light Rain Showers
11:20 PM 53.6 °F 51.8 °F 94% 29.98 in 6.2 mi NNE 8.1 mph - N/A Rain Light Rain Showers
11:50 PM 53.6 °F 51.8 °F 94% 29.98 in 5.6 mi North 6.9 mph - N/A Rain Light Rain Showers